Tracking 29790 objects as of 12-Oct-2024
HD Live streaming from Space Station
objects crossing your sky now

USA 24

Track USA 24 now!
10-day predictions
USA 24 is classified as:


NORAD ID: 18010
Int'l Code: 1987-043F
Perigee: 367.2 km
Apogee: 1,641.3 km
Inclination: 63.3 °
Period: 105.1 minutes
Semi major axis: 7375 km
RCS: Unknown
Launch date: May 15, 1987
Source: United States (US)
Launch site: AIR FORCE WESTERN TEST RANGE (AFWTR)
Your satellite tracking list
Your tracking list is empty




NASA's NSSDC Master Catalog

Two Line Element Set (TLE):
1 18010U 87043F   24286.18930772  .00021226  00000-0  12286-2 0  9995
2 18010  63.2942 257.5638 0863788  93.0578 276.9534 13.70682523260883
Source of the keplerian elements: McCants